CAPE
1855 2102 2328 2563 2700 2737 2657 2532 2358 2255 2240 2262 2413 2319 2187 2061 2012 2139 2449 2570 2443 2282 2019 1599 1278 1062 874 711 531 478 178 430
1809 1869 2050 2134 2222 2445 2514 2455 2370 2233 2146 2138 2252 2214 1995 2000 1781 1855 2055 2132 2181 2078 1907 1545 1210 1063 896 731 528 400 180 192
1966 1834 1766 1725 1775 2049 2296 2310 2262 2235 2141 2060 1977 1924 1820 1800 1679 1566 1785 1842 1800 1764 1725 1423 1138 993 875 707 430 179 92 62
1512 2098 1798 1610 1974 1945 1858 1964 2016 2075 2135 2190 1989 2102 1906 1878 1706 1460 1519 1574 1536 1456 1440 1194 853 745 642 621 321 142 28 44
135 414 1380 1500 1815 1527 1377 1570 1689 1686 1875 1859 1901 2176 1885 1813 1585 1399 1132 1270 1233 1111 953 787 579 592 451 324 212 48 1 7
0 1 211 599 485 1392 1282 1391 1442 1547 1534 1506 1632 1708 1822 1650 1763 1460 1094 1128 1237 909 732 511 224 359 216 141 85 42 0 0
0 0 0 1 186 844 1845 1647 1477 1373 1588 1827 1874 1789 1637 1802 1652 1423 1201 1031 1210 854 654 365 123 141 229 200 166 72 0 0
0 0 0 0 0 0 0 23 210 521 611 560 1063 1415 1833 1698 1769 1615 1087 946 1102 820 671 479 239 30 77 118 238 173 28 0
0 0 0 0 0 0 0 0 0 0 0 0 0 10 209 364 585 712 953 801 880 816 464 243 181 16 0 0 139 146 25 0
0 0 0 0 0 0 0 0 0 0 0 0 0 0 0 0 23 131 290 435 848 913 843 276 206 124 29 0 0 104 5 0
0 0 0 0 0 0 0 0 0 0 0 0 0 0 0 0 0 0 0 110 428 741 857 480 232 216 78 11 0 0 0 0
0 0 0 0 0 0 0 0 0 0 0 0 0 0 0 0 0 0 0 0 24 353 756 819 401 244 155 60 8 5 0 0
0 0 0 0 0 0 0 0 0 0 0 0 0 0 0 0 0 0 0 0 0 0 0 599 530 392 245 81 74 42 36 0
0 0 0 0 0 0 0 0 0 0 0 0 0 0 0 0 0 0 0 0 0 0 0 0 8 264 214 210 0 0 0 0
0 0 0 0 0 0 0 0 0 0 0 0 0 0 0 0 0 0 0 0 0 0 0 0 0 0 66 215 9 33 0 0
0 0 0 0 0 0 0 0 0 0 0 0 0 0 0 0 0 0 0 0 0 0 0 3 0 0 0 7 16 0 0 0
0 0 0 0 0 0 0 0 0 0 0 0 0 0 0 0 0 0 0 0 0 0 0 0 0 26 0 0 0 10 0 0
0 0 0 0 0 0 0 0 0 0 0 0 0 0 0 0 0 0 0 0 12 40 31 22 18 24 21 0 0 0 4 10
0 0 0 0 0 0 0 0 0 0 0 0 0 1 0 0 0 0 0 0 0 16 43 33 23 14 30 24 11 2 6 8
0 0 0 0 0 0 0 0 0 0 0 0 0 0 0 0 0 12 0 0 0 0 0 1 27 16 1 32 50 20 8 18
CIN
-500 -430 -368 -320 -283 -256 -244 -239 -239 -235 -216 -194 -154 -132 -118 -119 -111 -90 -60 -36 -42 -56 -79 -120 -159 -174 -176 -166 -172 -216 -359 -210
-407 -375 -334 -322 -308 -259 -236 -224 -204 -191 -194 -177 -146 -123 -141 -125 -127 -87 -63 -66 -71 -68 -84 -115 -150 -161 -180 -180 -173 -227 -365 -288
-344 -366 -374 -370 -342 -281 -226 -209 -205 -185 -169 -166 -159 -154 -152 -133 -144 -154 -125 -112 -93 -87 -92 -118 -142 -160 -175 -177 -194 -267 -379 -388
-402 -283 -330 -356 -273 -284 -290 -247 -208 -184 -158 -135 -142 -106 -109 -73 -104 -152 -146 -128 -116 -117 -119 -141 -182 -197 -209 -188 -230 -276 -399 -373
-788 -661 -327 -289 -229 -298 -329 -297 -260 -229 -191 -162 -131 -77 -106 -105 -127 -149 -180 -146 -132 -142 -174 -195 -234 -226 -250 -256 -256 -359 -64 -512
-0 -225 -648 -488 -535 -282 -294 -271 -249 -186 -202 -189 -148 -119 -88 -108 -94 -129 -179 -159 -112 -151 -184 -249 -315 -268 -305 -302 -307 -301 -0 -0
-0 -0 -0 -407 -630 -327 -92 -93 -110 -140 -114 -70 -83 -83 -87 -62 -97 -134 -158 -154 -100 -142 -175 -229 -310 -305 -274 -284 -263 -256 -0 -0
-0 -0 -0 -0 -0 -0 -0 -195 -422 -273 -249 -264 -133 -68 -7 -13 -16 -30 -124 -137 -108 -159 -184 -192 -222 -277 -284 -266 -274 -248 -276 -0
-0 -0 -0 -0 -0 -0 -0 -0 -0 -0 -0 -0 -0 -27 -264 -158 -84 -57 -39 -67 -89 -101 -146 -188 -218 -321 -0 -5 -232 -240 -299 -0
-0 -0 -0 -0 -0 -0 -0 -0 -0 -0 -0 -0 -0 -0 -0 -0 -311 -185 -74 -48 -6 -13 -23 -125 -146 -187 -275 -0 -0 -246 -280 -0
-0 -0 -0 -0 -0 -0 -0 -0 -0 -0 -0 -0 -0 -0 -0 -0 -0 -0 -0 -221 -11 -0 -0 -37 -119 -140 -217 -271 -0 -104 -0 -0
-0 -0 -0 -0 -0 -0 -0 -0 -0 -0 -0 -0 -0 -0 -0 -0 -0 -0 -0 -0 -60 -21 -0 -0 -30 -99 -140 -240 -178 -181 -2 -0
-0 -0 -0 -0 -0 -0 -0 -0 -0 -0 -0 -0 -0 -0 -0 -0 -0 -0 -0 -0 -0 -0 -0 -2 -9 -36 -52 -149 -169 -219 -148 -0
-0 -0 -0 -0 -0 -0 -0 -0 -0 -0 -0 -0 -0 -0 -0 -0 -0 -0 -0 -0 -0 -0 -0 -0 -10 -23 -56 -42 -0 -0 -0 -0
-0 -0 -0 -0 -0 -0 -0 -0 -0 -0 -0 -0 -0 -0 -0 -0 -0 -0 -0 -0 -0 -0 -0 -0 -0 -0 -36 -59 -31 -207 -0 -0
-0 -0 -0 -0 -0 -0 -0 -0 -0 -0 -0 -0 -0 -0 -0 -0 -0 -0 -0 -0 -0 -0 -0 -16 -0 -0 -0 -3 -14 -0 -0 -0
-0 -0 -0 -0 -0 -0 -0 -0 -0 -0 -0 -0 -0 -0 -0 -0 -0 -0 -0 -0 -0 -2 -0 -0 -3 -2 -0 -0 -0 -0 -0 -0
-0 -0 -0 -0 -0 -0 -0 -0 -0 -0 -0 -0 -0 -0 -0 -0 -0 -0 -0 -0 -17 -21 -27 -5 -10 -0 -2 -0 -0 -0 -1 -0
-0 -0 -0 -0 -0 -0 -0 -0 -0 -0 -0 -0 -0 -1 -0 -0 -0 -0 -0 -0 -0 -31 -52 -59 -34 -18 -4 -5 -25 -7 -7 -6
-0 -0 -0 -0 -0 -0 -0 -0 -0 -0 -0 -0 -0 -1 -0 -0 -0 -5 -3 -0 -0 -0 -0 -5 -22 -35 -6 -2 -15 -31 -19 -2
Wind_Speed
9 8 8 9 9 8 7 6 7 8 9 9 10 9 9 10 11 12 11 10 10 11 11 12 12 11 10 8 8 7 5 5
6 4 3 3 4 7 7 7 6 7 8 8 7 7 9 10 10 10 11 12 12 11 11 11 11 11 11 9 8 8 5 5
3 5 6 5 5 6 7 8 8 8 7 8 5 4 5 7 9 12 14 14 12 12 11 11 11 11 11 9 7 3 5 3
4 3 3 5 3 5 7 7 7 6 6 6 5 6 4 5 7 12 13 12 12 12 13 12 10 6 5 9 4 5 4 4
11 10 4 2 3 2 2 3 4 4 7 6 5 5 5 5 5 5 6 10 6 8 8 7 9 9 8 6 5 5 4 4
12 10 9 7 5 1 3 2 3 3 5 6 5 4 7 7 6 6 6 6 8 7 6 8 9 11 9 9 7 6 4 4
11 12 11 10 11 7 4 2 2 3 3 3 5 7 7 6 7 6 7 6 8 9 9 8 10 11 9 10 10 9 6 5
8 12 9 9 9 10 7 6 6 5 6 7 7 4 4 4 4 4 5 6 9 10 11 10 10 10 11 11 12 10 10 9
8 8 8 10 8 7 7 8 7 7 6 9 7 6 6 5 3 4 5 6 11 10 8 7 8 9 14 11 11 13 11 10
9 8 8 9 8 8 7 7 6 5 5 4 8 8 8 8 7 5 5 5 7 8 9 8 10 12 11 12 11 12 11 11
9 9 8 8 7 5 6 7 7 7 7 6 7 6 7 6 4 5 8 7 6 8 9 9 9 10 11 10 10 11 11 9
8 7 8 7 5 5 5 5 5 6 7 9 11 9 8 5 5 6 5 6 8 8 11 10 11 12 10 12 11 10 9 11
7 9 6 6 5 4 5 5 5 5 6 9 10 11 12 12 8 8 5 4 7 9 8 13 10 11 10 10 12 15 15 13
7 8 8 6 4 3 3 2 2 1 3 5 7 8 9 10 11 10 10 8 6 6 7 6 9 10 10 8 6 6 6 14
6 8 7 6 5 2 0 1 2 3 3 3 3 6 7 8 11 10 11 10 8 6 6 5 7 7 13 9 4 10 4 2
6 7 5 3 4 4 5 3 4 3 3 7 8 6 6 6 10 9 11 10 11 7 5 5 5 10 7 5 13 3 6 4
5 4 3 1 5 5 4 4 2 3 7 11 10 6 6 8 11 9 9 9 9 7 8 7 5 7 7 5 7 10 4 1
5 3 6 9 9 10 9 8 8 9 11 9 9 7 4 7 9 10 10 9 5 6 6 9 10 9 6 4 4 5 8 9
3 3 6 6 7 7 7 7 10 11 12 10 12 9 7 9 11 11 10 7 6 5 5 5 7 10 11 8 5 7 5 7
5 7 7 7 7 7 6 6 5 6 7 8 8 6 8 11 10 8 9 9 7 6 4 4 6 5 9 13 7 6 6 8
Wind_Direction
155 163 173 174 174 174 172 177 186 192 196 198 196 193 190 190 186 188 185 190 191 183 181 185 190 197 212 186 189 162 141 160
94 98 126 154 170 177 172 173 186 205 208 210 207 208 202 196 194 193 193 200 199 193 190 194 196 202 211 209 198 165 175 171
141 155 167 174 171 188 176 186 190 197 211 219 213 221 216 213 204 201 201 204 202 197 197 196 201 210 215 220 205 180 183 199
42 186 206 175 194 186 182 187 199 193 193 193 201 211 206 223 221 217 214 210 206 202 201 198 196 212 225 225 210 197 179 187
35 34 54 359 217 217 239 191 197 205 191 192 190 199 203 209 216 222 222 217 215 208 208 207 202 210 218 218 208 194 193 194
35 29 32 16 2 179 224 208 188 212 215 191 184 207 223 220 217 214 211 208 211 212 215 210 205 212 212 212 210 201 196 206
39 31 28 23 29 19 28 9 342 318 320 253 215 214 225 225 224 213 211 202 210 214 215 213 213 214 215 209 211 210 202 192
42 39 32 33 34 34 33 31 10 18 45 26 8 337 293 269 261 242 224 210 210 213 213 213 218 217 217 215 214 210 206 191
57 53 32 36 36 31 34 38 30 22 13 16 10 9 347 327 326 289 263 236 216 226 226 228 226 215 224 218 221 218 203 192
57 51 40 34 28 30 31 33 26 13 22 -0 14 9 7 358 344 320 284 256 244 234 226 220 225 234 231 227 217 213 203 191
59 52 43 38 34 31 29 24 17 6 13 18 4 359 353 356 345 328 331 308 268 250 233 220 219 224 234 237 231 216 197 188
84 62 49 41 31 23 33 25 18 15 16 4 359 354 350 336 317 320 328 323 312 286 254 234 222 216 216 228 226 223 207 193
57 64 52 50 31 12 23 17 10 4 7 355 357 352 346 341 331 321 305 302 299 306 301 267 240 228 225 223 224 218 213 203
61 59 52 39 41 30 31 354 344 323 349 345 349 338 333 332 321 315 309 294 287 291 309 315 305 239 237 219 230 230 253 211
80 75 62 51 54 61 331 236 356 18 343 323 306 312 311 310 314 313 311 299 282 276 276 280 296 287 284 241 213 218 143 240
77 84 82 77 48 59 54 38 356 318 306 322 326 309 307 318 320 323 325 311 294 274 280 273 284 295 326 280 287 270 193 155
102 99 77 83 50 68 61 21 299 292 319 320 316 301 318 325 314 313 313 312 300 288 299 292 272 273 286 296 334 328 330 242
76 53 16 26 31 25 21 1 336 329 322 314 311 307 307 309 305 305 307 298 302 312 304 307 293 284 272 258 300 288 296 316
167 90 76 67 53 31 9 348 337 332 327 319 313 307 308 308 310 305 302 289 302 285 309 308 308 314 311 271 205 245 275 284
122 108 88 56 37 9 356 337 323 308 303 297 294 291 291 298 295 311 310 308 314 321 309 291 299 295 309 303 251 237 229 244